FW3054 Weather Reports


time (UTC)temp
C
wind
direction
speed
KPH
gust
KPH
rain 1hr
cm
rain 24hr
cm
rain mn
cm
humidity
%
barometer
mb
20260906181516 30 0.0 0.0 0.00 0.00 0.00 64 1015.2
20260906180516 30 0.0 1.6 0.00 0.00 0.00 63 1015.2
20260906175536 29 0.0 1.6 0.00 0.00 0.00 66 1015.4
20260906174518 29 0.0 3.2 0.00 0.00 0.00 67 1015.4
20260906173516 30 23 1.6 3.2 0.00 0.00 0.00 61 1015.3
20260906172516 29 0.0 3.2 0.00 0.00 0.00 62 1015.3
20260906171536 28 23 1.6 4.8 0.00 0.00 0.00 67 1015.5
20260906170516 28 0.0 3.2 0.00 0.00 0.00 69 1015.4
20260906165516 28 23 4.8 8.0 0.00 0.00 0.00 70 1015.6
20260906164516 28 0.0 0.0 0.00 0.00 0.00 71 1015.9
20260906163516 28 0.0 3.2 0.00 0.00 0.00 70 1016.0
20260906162516 28 0.0 3.2 0.00 0.00 0.00 71 1016.1
20260906161516 28 0.0 0.0 0.00 0.00 0.00 74 1016.3
20260906160518 28 0.0 1.6 0.00 0.00 0.00 73 1016.5
20260906155516 27 0.0 1.6 0.00 0.00 0.00 76 1016.5
20260906154516 27 0.0 0.0 0.00 0.00 0.00 77 1016.5
20260906153516 27 0.0 3.2 0.00 0.00 0.00 78 1016.5
20260906152516 26 0.0 0.0 0.00 0.00 0.00 80 1016.8
20260906151536 26 0.0 1.6 0.00 0.00 0.00 81 1016.7
20260906150516 25 0.0 1.6 0.00 0.00 0.00 83 1016.7
20260906145516 25 0.0 1.6 0.00 0.00 0.00 85 1016.6
20260906144516 24 0.0 1.6 0.00 0.00 0.00 87 1016.8
20260906143516 23 0.0 0.0 0.00 0.00 0.00 88 1016.8
20260906142516 23 0.0 0.0 0.00 0.00 0.00 90 1016.8
20260906141516 23 0.0 0.0 0.00 0.00 0.00 89 1016.6
20260906140518 22 0.0 1.6 0.00 0.00 0.00 87 1016.7
20260906135516 22 0.0 0.0 0.00 0.00 0.00 86 1016.9
20260906134536 21 0.0 0.0 0.00 0.00 0.00 82 1016.9
20260906133516 21 0.0 0.0 0.00 0.00 0.00 81 1016.8
20260906132516 21 0.0 0.0 0.00 0.00 0.00 80 1016.7
20260906131516 21 0.0 0.0 0.00 0.00 0.00 79 1016.7
20260906130536 21 0.0 0.0 0.00 0.00 0.00 79 1016.4
20260906125536 20 0.0 0.0 0.00 0.00 0.00 78 1016.4
20260906124516 20 0.0 0.0 0.00 0.00 0.00 77 1016.4
20260906123536 20 0.0 0.0 0.00 0.00 0.00 77 1016.3
20260906122516 20 0.0 0.0 0.00 0.00 0.00 77 1016.1
20260906121516 20 0.0 0.0 0.00 0.00 0.00 77 1016.0
20260906120516 20 0.0 1.6 0.00 0.00 0.00 78 1015.8
20260906115516 20 0.0 0.0 0.00 0.00 0.00 80 1015.9
20260906114516 19 0.0 0.0 0.00 0.00 0.00 81 1015.7
20260906113516 20 0.0 0.0 0.00 0.00 0.00 81 1015.6
20260906112515 20 0.0 0.0 0.00 0.00 0.00 81 1015.7
20260906111515 20 0.0 0.0 0.00 0.00 0.00 81 1015.6
20260906110516 20 0.0 0.0 0.00 0.00 0.00 82 1015.5
20260906105536 20 0.0 0.0 0.00 0.00 0.00 81 1015.5
20260906104516 20 0.0 0.0 0.00 0.00 0.00 81 1015.6
20260906103516 20 0.0 0.0 0.00 0.00 0.00 81 1015.4
20260906102515 20 0.0 0.0 0.00 0.00 0.00 82 1015.4
20260906101516 20 0.0 0.0 0.00 0.00 0.00 82 1015.4
20260906100516 20 0.0 0.0 0.00 0.00 0.00 82 1015.5
20260906095515 20 0.0 0.0 0.00 0.00 0.00 82 1015.5
20260906094515 20 0.0 0.0 0.00 0.00 0.00 82 1015.4
20260906093515 20 0.0 0.0 0.00 0.00 0.00 81 1015.4
20260906092516 20 0.0 0.0 0.00 0.00 0.00 81 1015.4
20260906091515 20 0.0 0.0 0.00 0.00 0.00 81 1015.2
20260906090515 20 0.0 0.0 0.00 0.00 0.00 82 1015.4
20260906085515 20 0.0 0.0 0.00 0.00 0.00 82 1015.4
20260906084516 20 0.0 0.0 0.00 0.00 0.00 83 1015.3
20260906083515 20 0.0 0.0 0.00 0.00 0.00 83 1015.2
20260906082515 20 0.0 0.0 0.00 0.00 0.00 83 1014.9
20260906081515 20 0.0 0.0 0.00 0.00 0.00 83 1014.9
20260906080515 20 0.0 0.0 0.00 0.00 0.00 84 1014.8
20260906075515 20 0.0 0.0 0.00 0.00 0.00 84 1014.5
20260906074515 20 0.0 0.0 0.00 0.00 0.00 85 1014.5
20260906073515 20 0.0 0.0 0.00 0.00 0.00 85 1014.6
20260906072515 21 0.0 0.0 0.00 0.00 0.00 85 1014.7
20260906071515 21 0.0 0.0 0.00 0.00 0.00 85 1014.7
20260906070535 21 0.0 0.0 0.00 0.00 0.00 85 1014.7
20260906065515 21 0.0 0.0 0.00 0.00 0.00 85 1014.7
20260906064515 21 0.0 1.6 0.00 0.00 0.00 85 1014.8
20260906063535 21 0.0 0.0 0.00 0.00 0.00 86 1015.0
20260906062515 21 0.0 0.0 0.00 0.00 0.00 86 1015.1
20260906061558 21 0.0 0.0 0.00 0.00 0.00 87 1015.2
20260906060517 21 0.0 0.0 0.00 0.00 0.00 87 1015.5
20260906055515 21 0.0 0.0 0.00 0.00 0.00 88 1016.0
20260906054517 21 0.0 0.0 0.00 0.00 0.00 88 1015.9
20260906053515 21 0.0 0.0 0.00 0.00 0.00 88 1015.9
20260906052517 21 0.0 0.0 0.00 0.00 0.00 89 1016.4
20260906051538 22 0.0 0.0 0.00 0.00 0.00 89 1016.5
20260906050517 22 0.0 0.0 0.00 0.00 0.00 89 1016.6
20260906045517 22 0.0 1.6 0.00 0.00 0.00 89 1016.5
20260906044517 22 0.0 0.0 0.00 0.00 0.00 89 1016.7
20260906043517 22 0.0 0.0 0.00 0.00 0.00 89 1016.7
20260906042517 22 0.0 0.0 0.00 0.00 0.00 89 1016.4
20260906041517 22 0.0 0.0 0.00 0.00 0.00 89 1016.6
20260906040517 22 0.0 1.6 0.00 0.00 0.00 89 1016.6
20260906035515 22 0.0 0.0 0.00 0.00 0.00 89 1016.5
20260906034537 22 0.0 0.0 0.00 0.00 0.00 89 1016.7
20260906033517 22 0.0 0.0 0.00 0.00 0.00 89 1016.9
20260906032517 22 0.0 0.0 0.00 0.00 0.00 89 1016.8
20260906031517 23 0.0 0.0 0.00 0.00 0.00 89 1017.1
20260906030517 23 0.0 0.0 0.00 0.00 0.00 89 1017.1
20260906025517 23 0.0 0.0 0.00 0.00 0.00 89 1016.9
20260906024517 23 0.0 0.0 0.00 0.00 0.00 88 1016.7
20260906023517 23 0.0 0.0 0.00 0.00 0.00 88 1016.7
20260906022517 23 0.0 0.0 0.00 0.00 0.00 88 1016.4
20260906021517 23 0.0 0.0 0.00 0.00 0.00 88 1016.2
20260906020517 23 0.0 0.0 0.00 0.00 0.00 87 1016.1
20260906015517 23 0.0 0.0 0.00 0.00 0.00 86 1015.6
20260906014517 23 0.0 0.0 0.00 0.00 0.00 86 1015.7
20260906013517 24 0.0 0.0 0.00 0.00 0.00 85 1015.7
20260906012517 24 0.0 0.0 0.00 0.00 0.00 85 1015.7
20260906011517 24 0.0 0.0 0.00 0.00 0.00 84 1015.5
20260906010557 24 0.0 0.0 0.00 0.00 0.00 84 1015.3
20260906005517 25 0.0 0.0 0.00 0.00 0.00 84 1015.3
20260906004517 25 0.0 0.0 0.00 0.00 0.00 83 1015.2
20260906003537 25 0.0 0.0 0.00 0.00 0.00 83 1015.1
20260906002537 25 0.0 0.0 0.00 0.00 0.00 83 1014.9
20260906001517 25 0.0 0.0 0.00 0.00 0.00 82 1014.9
20260906000517 25 0.0 0.0 0.00 0.00 0.00 81 1014.9
20260905235517 26 0.0 0.0 0.00 0.00 0.00 80 1014.7
20260905234517 26 0.0 0.0 0.00 0.00 0.00 79 1014.6
20260905233517 26 0.0 0.0 0.00 0.00 0.00 78 1014.8
20260905232517 26 0.0 0.0 0.00 0.00 0.00 77 1014.5
20260905231517 26 0.0 0.0 0.00 0.00 0.00 75 1014.4
20260905230517 27 0.0 0.0 0.00 0.00 0.00 75 1014.5
20260905225516 27 0.0 0.0 0.00 0.00 0.00 74 1014.6
20260905224516 27 0.0 0.0 0.00 0.00 0.00 72 1014.6
20260905223517 28 0.0 1.6 0.00 0.00 0.00 69 1014.6
20260905222516 28 0.0 0.0 0.00 0.00 0.00 69 1014.9
20260905221517 28 0.0 1.6 0.00 0.00 0.00 67 1014.7
20260905220517 28 0.0 1.6 0.00 0.00 0.00 67 1014.7
20260905215537 28 0.0 1.6 0.00 0.00 0.00 67 1014.9
20260905214517 28 0.0 1.6 0.00 0.00 0.00 66 1015.1
20260905213516 28 0.0 3.2 0.00 0.00 0.00 65 1015.2
20260905212517 28 0.0 1.6 0.00 0.00 0.00 66 1015.5
20260905211517 28 0.0 1.6 0.00 0.00 0.00 66 1015.7
20260905210517 28 0.0 1.6 0.00 0.00 0.00 67 1015.7
20260905205516 28 0.0 0.0 0.00 0.00 0.00 69 1015.7
20260905204516 28 0.0 0.0 0.00 0.00 0.00 69 1015.7
20260905203517 28 0.0 0.0 0.00 0.00 0.00 69 1015.7
20260905202516 28 0.0 1.6 0.00 0.00 0.00 69 1015.7
20260905201516 27 0.0 3.2 0.00 0.00 0.00 72 1015.8
20260905200516 27 0.0 1.6 0.00 0.00 0.00 75 1015.8
20260905195516 26 0.0 1.6 0.00 0.00 0.00 77 1016.2
20260905194516 26 0.0 3.2 0.00 0.00 0.00 77 1016.1
20260905193537 25 0.0 0.0 0.00 0.00 0.00 75 1016.1
20260905192556 25 0.0 0.0 0.00 0.00 0.00 75 1016.2
20260905191536 25 0.0 0.0 0.00 0.00 0.00 75 1016.3
20260905190516 25 0.0 3.2 0.00 0.00 0.00 73 1016.1
20260905185516 25 0.0 0.0 0.00 0.00 0.00 78 1016.6
20260905184516 25 0.0 0.0 0.00 0.00 0.00 76 1016.4
20260905183516 25 0.0 0.0 0.00 0.00 0.00 74 1016.9
20260905182516 25 0.0 0.0 0.00 0.00 0.00 72 1016.7